FW7644 Weather Reports


Display with metric or nautical units.
time (UTC)temp
F
wind
direction
speed
MPH
gust
MPH
rain 1hr
in
rain 24hr
in
rain mn
in
humidity
%
barometer
mb
20260506231016 65 0.0 0.0 0.00 0.00 0.00 99 1021.3
20260506230514 65 0.0 0.0 0.00 0.00 0.00 99 1021.2
20260506230013 65 0.0 0.0 0.00 0.00 0.00 99 1021.3
20260506225511 65 0.0 0.0 0.00 0.00 0.00 99 1021.3
20260506225010 66 0.0 0.0 0.00 0.00 0.00 99 1021.3
20260506224508 66 0.0 0.0 0.00 0.00 0.00 99 1021.3
20260506224006 66 0.0 0.0 0.00 0.00 0.00 99 1021.2
20260506223504 66 0.0 0.0 0.00 0.00 0.00 99 1021.1
20260506223002 66 0.0 0.0 0.00 0.00 0.00 99 1021.1
20260506222500 67 0.0 0.0 0.00 0.00 0.00 99 1021.1
20260506221958 67 0.0 0.0 0.00 0.00 0.00 99 1021.1
20260506221456 67 0.0 0.0 0.00 0.00 0.00 99 1021.1
20260506220954 67 0.0 0.0 0.00 0.00 0.00 99 1021.1
20260506220452 68 0.0 0.0 0.00 0.00 0.00 99 1021.1
20260506215950 68 0.0 0.0 0.00 0.00 0.00 99 1021.1
20260506215448 68 0.0 0.0 0.00 0.00 0.00 99 1021.0
20260506214947 68 0.0 0.0 0.00 0.00 0.00 99 1021.0
20260506214446 68 0.0 0.0 0.00 0.00 0.00 99 1021.0
20260506213943 68 0.0 0.0 0.00 0.00 0.00 99 1021.0
20260506213442 68 0.0 0.0 0.00 0.00 0.00 99 1021.0
20260506212940 69 0.0 0.0 0.00 0.00 0.00 99 1021.0
20260506212438 69 0.0 0.0 0.00 0.00 0.00 97 1020.9
20260506211936 69 0.0 0.0 0.00 0.00 0.00 95 1020.8
20260506211434 69 0.0 0.0 0.00 0.00 0.00 92 1020.8
20260506210932 70 0.0 0.0 0.00 0.00 0.00 90 1020.6
20260506210431 70 0.0 0.0 0.00 0.00 0.00 87 1020.6
20260506205929 71 0.0 0.0 0.00 0.00 0.00 86 1020.7
20260506205427 71 0.0 0.0 0.00 0.00 0.00 84 1020.7
20260506204925 72 0.0 0.0 0.00 0.00 0.00 82 1020.7
20260506204424 72 0.0 0.0 0.00 0.00 0.00 79 1020.7
20260506203922 73 0.0 0.0 0.00 0.00 0.00 77 1020.7
20260506203420 73 0.0 0.0 0.00 0.00 0.00 77 1020.7
20260506202918 73 0.0 0.0 0.00 0.00 0.00 75 1020.7
20260506202417 74 0.0 0.0 0.00 0.00 0.00 73 1020.6
20260506201915 76 0.0 0.0 0.00 0.00 0.00 70 1020.6
20260506201413 75 0.0 0.0 0.00 0.00 0.00 71 1020.6
20260506200911 76 0.0 0.0 0.00 0.00 0.00 69 1020.7
20260506200409 76 0.0 0.0 0.00 0.00 0.00 69 1020.8
20260506195908 76 0.0 0.0 0.00 0.00 0.00 69 1020.8
20260506195406 77 0.0 0.0 0.00 0.00 0.00 65 1020.9
20260506194904 79 0.0 0.0 0.00 0.00 0.00 63 1020.8
20260506194402 77 0.0 0.0 0.00 0.00 0.00 68 1020.9
20260506193901 77 0.0 0.0 0.00 0.00 0.00 66 1020.9
20260506193359 78 0.0 0.0 0.00 0.00 0.00 66 1020.9
20260506192858 78 0.0 0.0 0.00 0.00 0.00 64 1020.8
20260506192356 78 0.0 0.0 0.00 0.00 0.00 63 1020.8
20260506191855 79 0.0 0.0 0.00 0.00 0.00 62 1020.9
20260506191353 80 0.0 0.0 0.00 0.00 0.00 60 1020.9
20260506190851 82 0.0 0.0 0.00 0.00 0.00 55 1020.9
20260506190349 85 0.0 0.0 0.00 0.00 0.00 50 1021.0
20260506185847 85 0.0 0.0 0.00 0.00 0.00 50 1021.0
20260506185345 84 0.0 0.0 0.00 0.00 0.00 51 1021.0
20260506184844 84 0.0 0.0 0.00 0.00 0.00 51 1021.0
20260506184342 88 0.0 0.0 0.00 0.00 0.00 46 1021.0
20260506183840 89 0.0 0.0 0.00 0.00 0.00 45 1020.9
20260506183338 87 0.0 0.0 0.00 0.00 0.00 48 1020.9
20260506182837 86 0.0 0.0 0.00 0.00 0.00 51 1021.0
20260506182335 82 0.0 0.0 0.00 0.00 0.00 58 1021.0
20260506181833 82 0.0 0.0 0.00 0.00 0.00 56 1021.1
20260506181332 83 0.0 0.0 0.00 0.00 0.00 51 1021.1
20260506180830 83 0.0 0.0 0.00 0.00 0.00 51 1021.2
20260506180329 80 0.0 0.0 0.00 0.00 0.00 54 1021.3
20260506175827 80 0.0 0.0 0.00 0.00 0.00 54 1021.3
20260506175325 80 0.0 0.0 0.00 0.00 0.00 54 1021.2
20260506174824 80 0.0 0.0 0.00 0.00 0.00 54 1021.2
20260506174322 80 0.0 0.0 0.00 0.00 0.00 52 1021.3
20260506173820 81 0.0 0.0 0.00 0.00 0.00 51 1021.4
20260506173318 83 0.0 0.0 0.00 0.00 0.00 48 1021.5
20260506172816 83 0.0 0.0 0.00 0.00 0.00 48 1021.5
20260506172314 84 0.0 0.0 0.00 0.00 0.00 48 1021.5
20260506171812 87 0.0 0.0 0.00 0.00 0.00 43 1021.5
20260506171310 88 0.0 0.0 0.00 0.00 0.00 42 1021.5
20260506170809 85 0.0 0.0 0.00 0.00 0.00 47 1021.6
20260506170307 82 0.0 0.0 0.00 0.00 0.00 50 1021.7
20260506165805 84 0.0 0.0 0.00 0.00 0.00 47 1021.8
20260506165305 86 0.0 0.0 0.00 0.00 0.00 45 1021.9
20260506164802 87 0.0 0.0 0.00 0.00 0.00 43 1021.9
20260506164300 85 0.0 0.0 0.00 0.00 0.00 46 1022.1
20260506163758 85 0.0 0.0 0.00 0.00 0.00 46 1022.1
20260506163256 84 0.0 0.0 0.00 0.00 0.00 47 1022.2
20260506162755 84 0.0 0.0 0.00 0.00 0.00 46 1022.2
20260506162253 87 0.0 0.0 0.00 0.00 0.00 43 1022.2
20260506161751 86 0.0 0.0 0.00 0.00 0.00 44 1022.3
20260506161249 86 0.0 0.0 0.00 0.00 0.00 43 1022.3
20260506160748 86 0.0 0.0 0.00 0.00 0.00 44 1022.4
20260506160246 86 0.0 0.0 0.00 0.00 0.00 44 1022.6
20260506155744 86 0.0 0.0 0.00 0.00 0.00 44 1022.6
20260506155242 86 0.0 0.0 0.00 0.00 0.00 43 1022.8
20260506154741 83 0.0 0.0 0.00 0.00 0.00 46 1022.9
20260506154239 84 0.0 0.0 0.00 0.00 0.00 45 1023.1
20260506153737 86 0.0 0.0 0.00 0.00 0.00 46 1023.2
20260506153235 86 0.0 0.0 0.00 0.00 0.00 47 1023.3
20260506152734 83 0.0 0.0 0.00 0.00 0.00 50 1023.5
20260506152232 84 0.0 0.0 0.00 0.00 0.00 49 1023.5
20260506151730 84 0.0 0.0 0.00 0.00 0.00 49 1023.6
20260506151228 84 0.0 0.0 0.00 0.00 0.00 48 1023.8
20260506150726 83 0.0 0.0 0.00 0.00 0.00 48 1023.9
20260506150224 85 0.0 0.0 0.00 0.00 0.00 48 1023.9
20260506145722 83 0.0 0.0 0.00 0.00 0.00 52 1023.9
20260506145220 83 0.0 0.0 0.00 0.00 0.00 53 1024.0
20260506144718 83 0.0 0.0 0.00 0.00 0.00 54 1024.1
20260506144216 83 0.0 0.0 0.00 0.00 0.00 53 1024.1
20260506143714 83 0.0 0.0 0.00 0.00 0.00 54 1024.1
20260506143212 82 0.0 0.0 0.00 0.00 0.00 55 1024.2
20260506142711 81 0.0 0.0 0.00 0.00 0.00 57 1024.3
20260506142209 80 0.0 0.0 0.00 0.00 0.00 56 1024.3
20260506141708 82 0.0 0.0 0.00 0.00 0.00 52 1024.4
20260506141206 82 0.0 0.0 0.00 0.00 0.00 54 1024.5
20260506140704 82 0.0 0.0 0.00 0.00 0.00 55 1024.5
20260506140203 80 0.0 0.0 0.00 0.00 0.00 59 1024.5
20260506135701 81 0.0 0.0 0.00 0.00 0.00 56 1024.6
20260506135159 81 0.0 0.0 0.00 0.00 0.00 56 1024.7
20260506134658 80 0.0 0.0 0.00 0.00 0.00 58 1024.7
20260506134155 81 0.0 0.0 0.00 0.00 0.00 57 1024.8
20260506133653 81 0.0 0.0 0.00 0.00 0.00 60 1024.7
20260506133151 81 0.0 0.0 0.00 0.00 0.00 57 1024.8
20260506132649 82 0.0 0.0 0.00 0.00 0.00 58 1024.9
20260506132147 79 0.0 0.0 0.00 0.00 0.00 64 1024.9
20260506131645 80 0.0 0.0 0.00 0.00 0.00 65 1024.9
20260506131142 81 0.0 0.0 0.00 0.00 0.00 64 1025.1
20260506130640 81 0.0 0.0 0.00 0.00 0.00 66 1025.1
20260506130138 80 0.0 0.0 0.00 0.00 0.00 68 1025.1
20260506125636 78 0.0 0.0 0.00 0.00 0.00 72 1025.2
20260506125134 80 0.0 0.0 0.00 0.00 0.00 68 1025.1
20260506124632 79 0.0 0.0 0.00 0.00 0.00 69 1025.1
20260506124130 78 0.0 0.0 0.00 0.00 0.00 71 1025.1
20260506123628 77 0.0 0.0 0.00 0.00 0.00 72 1025.1
20260506123126 78 0.0 0.0 0.00 0.00 0.00 70 1025.1
20260506122624 77 0.0 0.0 0.00 0.00 0.00 71 1025.0
20260506122122 76 0.0 0.0 0.00 0.00 0.00 76 1025.0
20260506121621 74 0.0 0.0 0.00 0.00 0.00 77 1024.9
20260506121119 76 0.0 0.0 0.00 0.00 0.00 72 1025.0
20260506120617 75 0.0 0.0 0.00 0.00 0.00 74 1025.0
20260506120115 73 0.0 0.0 0.00 0.00 0.00 77 1025.0
20260506115613 73 0.0 0.0 0.00 0.00 0.00 77 1025.0
20260506115112 73 0.0 0.0 0.00 0.00 0.00 80 1024.9
20260506114610 73 0.0 0.0 0.00 0.00 0.00 76 1024.9
20260506114108 74 0.0 0.0 0.00 0.00 0.00 75 1024.8
20260506113607 71 0.0 0.0 0.00 0.00 0.00 82 1024.8
20260506113105 70 0.0 0.0 0.00 0.00 0.00 79 1024.8
20260506112603 73 0.0 0.0 0.00 0.00 0.00 75 1024.7
20260506112101 71 0.0 0.0 0.00 0.00 0.00 80 1024.7
20260506111600 71 0.0 0.0 0.00 0.00 0.00 79 1024.6
20260506111058 71 0.0 0.0 0.00 0.00 0.00 83 1024.6
20260506110557 71 0.0 0.0 0.00 0.00 0.00 86 1024.5
20260506110055 68 0.0 0.0 0.00 0.00 0.00 99 1024.5
20260506105554 65 0.0 0.0 0.00 0.00 0.00 99 1024.4
20260506105052 62 0.0 0.0 0.00 0.00 0.00 99 1024.4
20260506104550 60 0.0 0.0 0.00 0.00 0.00 99 1024.3
20260506104049 59 0.0 0.0 0.00 0.00 0.00 99 1024.2
20260506103547 58 0.0 0.0 0.00 0.00 0.00 99 1024.1
20260506103046 57 0.0 0.0 0.00 0.00 0.00 99 1024.2
20260506102544 56 0.0 0.0 0.00 0.00 0.00 99 1024.1
20260506102043 56 0.0 0.0 0.00 0.00 0.00 99 1024.0
20260506101541 56 0.0 0.0 0.00 0.00 0.00 99 1023.9
20260506101039 55 0.0 0.0 0.00 0.00 0.00 99 1024.0
20260506100538 55 0.0 0.0 0.00 0.00 0.00 99 1024.0
20260506100036 55 0.0 0.0 0.00 0.00 0.00 99 1024.0
20260506095534 55 0.0 0.0 0.00 0.00 0.00 99 1023.9
20260506095032 55 0.0 0.0 0.00 0.00 0.00 99 1024.0
20260506094531 55 0.0 0.0 0.00 0.00 0.00 99 1023.8
20260506094029 55 0.0 0.0 0.00 0.00 0.00 99 1023.8
20260506093527 55 0.0 0.0 0.00 0.00 0.00 99 1023.7
20260506093026 55 0.0 0.0 0.00 0.00 0.00 99 1023.6
20260506092524 55 0.0 0.0 0.00 0.00 0.00 99 1023.6
20260506092022 55 0.0 0.0 0.00 0.00 0.00 99 1023.6
20260506091521 55 0.0 0.0 0.00 0.00 0.00 99 1023.5
20260506091019 55 0.0 0.0 0.00 0.00 0.00 99 1023.3
20260506090517 55 0.0 0.0 0.00 0.00 0.00 99 1023.2
20260506090016 55 0.0 0.0 0.00 0.00 0.00 99 1023.2
20260506085514 55 0.0 0.0 0.00 0.00 0.00 99 1023.2
20260506085013 55 0.0 0.0 0.00 0.00 0.00 99 1023.2
20260506084511 55 0.0 0.0 0.00 0.00 0.00 99 1023.0
20260506084010 55 0.0 0.0 0.00 0.00 0.00 99 1023.0
20260506083508 55 0.0 0.0 0.00 0.00 0.00 99 1023.0
20260506083006 55 0.0 0.0 0.00 0.00 0.00 99 1023.0
20260506082505 55 0.0 0.0 0.00 0.00 0.00 99 1023.0
20260506082003 55 0.0 0.0 0.00 0.00 0.00 99 1022.9
20260506081502 56 0.0 0.0 0.00 0.00 0.00 99 1022.8
20260506080959 56 0.0 0.0 0.00 0.00 0.00 99 1022.9
20260506080458 56 0.0 0.0 0.00 0.00 0.00 99 1022.9
20260506073448 56 0.0 0.0 0.00 0.00 0.00 99 1022.4
20260506072946 56 0.0 0.0 0.00 0.00 0.00 99 1022.3
20260506072445 56 0.0 0.0 0.00 0.00 0.00 99 1022.3
20260506071943 56 0.0 0.0 0.00 0.00 0.00 99 1022.3
20260506071442 56 0.0 0.0 0.00 0.00 0.00 99 1022.3
20260506070940 56 0.0 0.0 0.00 0.00 0.00 99 1022.3
20260506070439 57 0.0 0.0 0.00 0.00 0.00 99 1022.2
20260506062426 57 0.0 0.0 0.00 0.00 0.00 99 1022.4
20260506061925 57 0.0 0.0 0.00 0.00 0.00 99 1022.4
20260506061423 57 0.0 0.0 0.00 0.00 0.00 99 1022.5
20260506060921 57 0.0 0.0 0.00 0.00 0.00 99 1022.6
20260506060420 57 0.0 0.0 0.00 0.00 0.00 99 1022.7
20260506051405 57 0.0 0.0 0.00 0.00 0.00 99 1023.1
20260506050903 57 0.0 0.0 0.00 0.00 0.00 99 1023.1
20260506050401 58 0.0 0.0 0.00 0.00 0.00 99 1023.1
20260506044857 58 0.0 0.0 0.00 0.00 0.00 99 1023.1
20260506044355 58 0.0 0.0 0.00 0.00 0.00 99 1023.2
20260506043854 58 0.0 0.0 0.00 0.00 0.00 99 1023.2
20260506043352 59 0.0 0.0 0.00 0.00 0.00 99 1023.2
20260506042850 58 0.0 0.0 0.00 0.00 0.00 99 1023.2
20260506042349 58 0.0 0.0 0.00 0.00 0.00 99 1023.2
20260506041848 58 0.0 0.0 0.00 0.00 0.00 99 1023.2
20260506041346 58 0.0 0.0 0.00 0.00 0.00 99 1023.2
20260506040844 58 0.0 0.0 0.00 0.00 0.00 99 1023.2
20260506040343 58 0.0 0.0 0.00 0.00 0.00 99 1023.2
20260506035841 59 0.0 0.0 0.00 0.00 0.00 99 1023.3
20260506035339 59 0.0 0.0 0.00 0.00 0.00 99 1023.3
20260506034838 59 0.0 0.0 0.00 0.00 0.00 99 1023.2
20260506034336 59 0.0 0.0 0.00 0.00 0.00 99 1023.3
20260506033835 59 0.0 0.0 0.00 0.00 0.00 99 1023.2
20260506033334 59 0.0 0.0 0.00 0.00 0.00 99 1023.2
20260506032832 59 0.0 0.0 0.00 0.00 0.00 99 1023.3
20260506032331 59 0.0 0.0 0.00 0.00 0.00 99 1023.3
20260506031829 59 0.0 0.0 0.00 0.00 0.00 99 1023.4
20260506031328 59 0.0 0.0 0.00 0.00 0.00 99 1023.5
20260506030826 59 0.0 0.0 0.00 0.00 0.00 99 1023.6
20260506030324 59 0.0 0.0 0.00 0.00 0.00 99 1023.6
20260506025823 59 0.0 0.0 0.00 0.00 0.00 99 1023.6
20260506025321 59 0.0 0.0 0.00 0.00 0.00 99 1023.6
20260506024819 59 0.0 0.0 0.00 0.00 0.00 99 1023.7
20260506024318 60 0.0 0.0 0.00 0.00 0.00 99 1023.7
20260506023816 60 0.0 0.0 0.00 0.00 0.00 99 1023.8
20260506023315 60 0.0 0.0 0.00 0.00 0.00 99 1023.8
20260506022814 60 0.0 0.0 0.00 0.00 0.00 99 1023.9
20260506022312 60 0.0 0.0 0.00 0.00 0.00 99 1023.9
20260506021811 60 0.0 0.0 0.00 0.00 0.00 99 1023.9
20260506021309 60 0.0 0.0 0.00 0.00 0.00 99 1023.9
20260506020807 60 0.0 0.0 0.00 0.00 0.00 99 1024.0
20260506020306 60 0.0 0.0 0.00 0.00 0.00 99 1024.0
20260506015804 60 0.0 0.0 0.00 0.00 0.00 99 1023.9
20260506015305 60 0.0 0.0 0.00 0.00 0.00 99 1023.9
20260506014800 60 0.0 0.0 0.00 0.00 0.00 99 1023.9
20260506014259 60 0.0 0.0 0.00 0.00 0.00 99 1023.9
20260506013757 60 0.0 0.0 0.00 0.00 0.00 99 1024.1
20260506013256 61 0.0 0.0 0.00 0.00 0.00 99 1024.1
20260506012754 61 0.0 0.0 0.00 0.00 0.00 99 1024.2
20260506012253 61 0.0 0.0 0.00 0.00 0.00 99 1024.2
20260506011752 61 0.0 0.0 0.00 0.00 0.00 99 1024.1
20260506011250 61 0.0 0.0 0.00 0.00 0.00 99 1024.0
20260506010748 61 0.0 0.0 0.00 0.00 0.00 99 1024.0
20260506010246 61 0.0 0.0 0.00 0.00 0.00 99 1024.0
20260506005744 62 0.0 0.0 0.00 0.00 0.00 99 1024.0
20260506005242 62 0.0 0.0 0.00 0.00 0.00 99 1024.0
20260506004740 62 0.0 0.0 0.00 0.00 0.00 99 1024.0
20260506004239 62 0.0 0.0 0.00 0.00 0.00 99 1024.0
20260506003737 62 0.0 0.0 0.00 0.00 0.00 99 1023.9
20260506003235 62 0.0 0.0 0.00 0.00 0.00 99 1023.9
20260506002733 62 0.0 0.0 0.00 0.00 0.00 99 1023.9
20260506002232 62 0.0 0.0 0.00 0.00 0.00 99 1023.9
20260506001730 62 0.0 0.0 0.00 0.00 0.00 99 1023.9
20260506001228 62 0.0 0.0 0.00 0.00 0.00 99 1023.9
20260506000726 63 0.0 0.0 0.00 0.00 0.00 99 1023.8
20260506000226 63 0.0 0.0 0.00 0.00 0.00 99 1023.8
20260505235722 63 0.0 0.0 0.00 0.00 0.00 99 1023.8
20260505235220 63 0.0 0.0 0.00 0.00 0.00 99 1023.8
20260505234718 63 0.0 0.0 0.00 0.00 0.00 99 1023.8
20260505234216 63 0.0 0.0 0.00 0.00 0.00 99 1023.8
20260505233714 64 0.0 0.0 0.00 0.00 0.00 99 1023.8
20260505233212 64 0.0 0.0 0.00 0.00 0.00 99 1023.7
20260505232710 64 0.0 0.0 0.00 0.00 0.00 99 1023.7
20260505232209 64 0.0 0.0 0.00 0.00 0.00 99 1023.7
20260505231707 64 0.0 0.0 0.00 0.00 0.00 99 1023.6
20260505231205 64 0.0 0.0 0.00 0.00 0.00 99 1023.6